STARLINK-36069

Last updated on Mon Dec 15 2025 00:02:11 GMT+0000 (Coordinated Universal Time)

1 66806U 25278R 25348.25003472 -.01299982 00000+0 -67257-2 0 9995 2 66806 42.9974 242.7636 0001889 280.4276 122.7112 15.82895723 2994
UTC large
Height (km)
Speed (km/s)
/
Latitude / Longitude
Inclination (degrees)
Orbital Period (minutes)
Azimuth
Elevation
Range (km)
Doppler Factor

Next 0 passes for location: London (51.5072 / 0.1276)

Sorry there are no passes over London.